Location: Newark
(34.9500°N, 139.9667°E)
Time: 01:32:33
(UTC+00:00)

Transit 2A - Pass Details

Date: 09 December 2019
Orbit: 601 x 957 km, 66.7° (Epoch: 17 January)

Event Time Altitude Azimuth Distance (km) Brightness Sun altitude
Rises 07:46:50 0° 323° (NW) 2,895 9.2 -4.2°
Reaches altitude 10° 07:49:08 10° 315° (NW) 2,015 8.5 -4.6°
Maximum altitude 07:53:19 37° 248° (WSW) 1,020 7.5 -5.4°
Drops below altitude 10° 07:57:48 10° 181° (S) 2,165 8.7 -6.2°
Sets 08:00:22 0° 174° (S) 3,141 9.4 -6.7°
